Waarnemingen

Advertentie
Mijn weer
Bournemouth Airport, Groot Brittannië (3862): temperatuur & dauwpunt: 30.06.2020 12:00:00 - 06.07.2020 12:00:00 (BST)Bournemouth Airport, Groot Brittannië (3862): temperatuur -20cm & temperatuur -100cm: 30.06.2020 12:00:00 - 06.07.2020 12:00:00 (BST)Bournemouth Airport, Groot Brittannië (3862): windsnelheid & windstoten: 30.06.2020 12:00:00 - 06.07.2020 12:00:00 (BST)Bournemouth Airport, Groot Brittannië (3862): windrichting: 30.06.2020 12:00:00 - 06.07.2020 12:00:00 (BST)Bournemouth Airport, Groot Brittannië (3862): luchtdruk: 30.06.2020 12:00:00 - 06.07.2020 12:00:00 (BST)Bournemouth Airport, Groot Brittannië (3862): zicht: 30.06.2020 12:00:00 - 06.07.2020 12:00:00 (BST)Bournemouth Airport, Groot Brittannië (3862): Zonneschijnduur: 30.06.2020 12:00:00 - 06.07.2020 12:00:00 (BST)Bournemouth Airport, Groot Brittannië (3862): neerslag: 30.06.2020 12:00:00 - 06.07.2020 12:00:00 (BST)
Datum & Tijd tt [°C] td [°C] tt -20cm [°C] tt -100cm [°C] ff [km/u] ff [kn] fx [km/u] fx [kn] dd ppp [hPa] vv [km] sd [min] rr [mm]
06.07.2020 12:00:00 18,7 6,7 - - 28 15 - - WNW 1021,3 10 24 0,0
06.07.2020 11:00:00 18,1 8,6 - - 24 13 - - NW 1021,1 10 12 0,0
06.07.2020 10:00:00 15,2 8,3 17,7 15,7 29 16 - - NW 1020,9 10 6 0,0
06.07.2020 09:00:00 15,3 9,8 - - 21 11 - - W 1020,3 10 30 0,0
06.07.2020 08:00:00 14,2 9,5 - - 15 8 - - - 1019,8 10 18 0,0
06.07.2020 07:00:00 13,5 10,0 - - 13 7 - - W 1018,9 10 0 0,0
06.07.2020 06:00:00 12,4 9,7 - - 13 7 - - W 1018,4 18 0 0,0
06.07.2020 05:00:00 11,6 9,0 - - 15 8 - - W 1017,8 17 0 0,0
06.07.2020 04:00:00 11,8 9,2 - - 22 12 - - W 1017,5 16 0 0,0
06.07.2020 03:00:00 11,7 8,9 - - 21 11 - - W 1017,3 16 0 0,0
06.07.2020 02:00:00 12,0 8,8 - - 22 12 - - W 1017,3 16 0 0,0
06.07.2020 01:00:00 11,8 8,3 - - 21 11 - - W 1017,4 17 - 0,0
06.07.2020 00:00:00 11,9 8,2 - - 16 9 - - W 1017,3 18 0 0,0
05.07.2020 23:00:00 12,8 7,5 - - 21 11 - - W 1017,0 21 0 0,0
05.07.2020 22:00:00 14,1 7,5 - - 18 10 - - W 1016,6 23 0 0,0
05.07.2020 21:00:00 15,5 7,1 - - 26 14 - - W 1016,0 25 36 0,0
05.07.2020 20:00:00 17,2 6,4 - - 35 19 50 27 W 1015,3 30 60 0,0
05.07.2020 19:00:00 18,3 6,6 - - 34 18 54 29 W 1014,8 10 60 0,0
05.07.2020 18:00:00 18,4 7,0 - - 34 18 52 28 W 1014,4 10 36 0,0
05.07.2020 17:00:00 18,7 8,8 - - 35 19 54 29 W 1014,5 30 18 0,0
05.07.2020 16:00:00 19,6 7,6 - - 35 19 57 31 W 1014,5 10 24 0,0
05.07.2020 15:00:00 20,8 7,6 - - 35 19 55 30 W 1014,1 35 54 0,0
05.07.2020 14:00:00 20,7 8,0 - - 34 18 52 28 W 1013,9 30 60 0,0
05.07.2020 13:00:00 20,2 9,1 - - 31 17 55 30 W 1013,5 10 54 0,0
05.07.2020 12:00:00 19,3 8,9 - - 31 17 46 25 W 1013,3 30 42 0,0
05.07.2020 11:00:00 19,3 9,5 - - 34 18 48 26 W 1013,1 10 36 0,0
05.07.2020 10:00:00 17,8 10,1 17,4 15,7 31 17 52 28 WNW 1012,9 30 30 0,0
05.07.2020 09:00:00 18,7 12,5 - - 39 21 54 29 W 1012,1 10 42 0,0
05.07.2020 08:00:00 17,5 15,2 - - 24 13 - - W 1011,2 10 0 0,0
05.07.2020 07:00:00 16,7 15,1 - - 16 9 - - WZW 1010,8 26 0 0,0
05.07.2020 06:00:00 16,2 15,0 - - 21 11 - - WZW 1010,7 29 0 0,0
05.07.2020 05:00:00 16,0 15,1 - - 26 14 50 27 WZW 1010,8 21 0 0,0
05.07.2020 04:00:00 15,8 14,9 - - 26 14 48 26 WZW 1011,1 11 0 0,0
05.07.2020 03:00:00 15,9 14,9 - - 28 15 50 27 WZW 1011,3 17 0 0,0
05.07.2020 02:00:00 15,8 14,8 - - 26 14 48 26 WZW 1011,9 7 0 0,0
05.07.2020 01:00:00 15,8 14,4 - - 24 13 55 30 WZW 1012,2 30 - 0,0
05.07.2020 00:00:00 16,0 14,4 - - 26 14 - - WZW 1012,3 21 0 0,0
04.07.2020 23:00:00 16,4 14,5 - - 26 14 - - WZW 1012,4 24 0 0,0
04.07.2020 22:00:00 16,4 14,7 - - 26 14 - - WZW 1012,3 17 0 0,0
04.07.2020 21:00:00 16,7 15,3 - - 21 11 - - WZW 1012,2 10 0 0,0
04.07.2020 20:00:00 17,0 15,4 - - 21 11 - - WZW 1012,1 10 0 0,0
04.07.2020 19:00:00 17,3 15,5 - - 28 15 - - WZW 1012,1 10 0 0,0
04.07.2020 18:00:00 17,6 15,4 - - 26 14 - - WZW 1012,0 21 0 0,0
04.07.2020 17:00:00 18,0 15,4 - - 29 16 48 26 WZW 1012,2 27 0 0,0
04.07.2020 16:00:00 17,8 15,6 - - 24 13 48 26 WZW 1012,2 10 0 0,0
04.07.2020 15:00:00 17,8 15,8 - - 29 16 50 27 WZW 1012,1 10 0 0,0
04.07.2020 14:00:00 18,4 15,5 - - 28 15 50 27 WZW 1012,5 30 0 0,0
04.07.2020 13:00:00 18,3 15,8 - - 29 16 46 25 WZW 1012,4 35 0 0,0
04.07.2020 12:00:00 17,4 16,0 - - 24 13 46 25 WZW 1012,3 10 0 0,0
04.07.2020 11:00:00 17,3 15,8 - - 22 12 - - WZW 1012,4 10 0 0,0
04.07.2020 10:00:00 17,5 15,7 17,5 15,7 18 10 - - WZW 1012,1 10 0 0,0
04.07.2020 09:00:00 16,8 15,6 - - 22 12 - - WZW 1012,5 10 0 0,0
04.07.2020 08:00:00 16,3 15,6 - - 18 10 - - ZW 1012,2 26 0 0,0
04.07.2020 07:00:00 16,2 15,6 - - 16 9 - - WZW 1012,6 7 0 0,0
04.07.2020 06:00:00 16,0 15,4 - - 22 12 - - ZW 1012,0 11 0 0,0
04.07.2020 05:00:00 15,8 15,1 - - 24 13 - - ZW 1012,4 5 0 0,4
04.07.2020 04:00:00 15,7 15,0 - - 26 14 50 27 ZW 1012,6 3,2 0 0,4
04.07.2020 03:00:00 15,6 14,8 - - 28 15 48 26 ZW 1012,9 4,2 0 0,2
04.07.2020 02:00:00 15,4 14,7 - - 26 14 48 26 ZW 1013,6 7 0 0,0
04.07.2020 01:00:00 15,2 14,4 - - 24 13 46 25 ZW 1014,4 9 - 0,0
04.07.2020 00:00:00 15,0 14,1 - - 26 14 - - ZW 1014,9 7 0 0,0
03.07.2020 23:00:00 15,0 13,8 - - 31 17 55 30 ZW 1015,0 14 0 0,0
03.07.2020 22:00:00 15,0 13,3 - - 28 15 46 25 ZW 1015,5 10 0 0,0
03.07.2020 21:00:00 14,9 13,0 - - 28 15 50 27 ZW 1015,8 21 0 0,2
03.07.2020 20:00:00 15,0 13,0 - - 22 12 52 28 ZW 1016,3 10 0 0,4
03.07.2020 19:00:00 15,2 12,6 - - 28 15 52 28 WZW 1016,7 10 0 0,0
03.07.2020 18:00:00 16,2 11,6 - - 28 15 46 25 ZW 1016,9 10 0 0,0
03.07.2020 17:00:00 16,8 11,5 - - 29 16 52 28 WZW 1017,3 10 0 0,0
03.07.2020 16:00:00 17,9 12,0 - - 29 16 52 28 WZW 1017,4 30 0 0,0
03.07.2020 15:00:00 18,2 11,1 - - 31 17 57 31 WZW 1017,3 30 36 0,0
03.07.2020 14:00:00 18,4 11,4 - - 35 19 59 32 WZW 1017,5 30 48 0,0
03.07.2020 13:00:00 18,1 10,3 - - 29 16 57 31 WZW 1017,9 10 18 0,0
03.07.2020 12:00:00 17,7 10,9 - - 28 15 48 26 WZW 1018,2 10 24 0,0
03.07.2020 11:00:00 17,1 10,4 - - 24 13 - - WZW 1018,0 10 18 0,0
03.07.2020 10:00:00 17,0 10,4 17,5 15,9 24 13 - - WZW 1017,8 10 30 0,0
03.07.2020 09:00:00 16,0 10,8 - - 21 11 - - WZW 1017,9 35 42 0,0
03.07.2020 08:00:00 14,5 11,5 - - 18 10 - - WZW 1018,0 30 24 0,0
03.07.2020 07:00:00 12,8 11,5 - - 11 6 - - W 1018,2 26 6 0,0
03.07.2020 06:00:00 11,3 10,0 - - 9 5 - - WZW 1018,1 10 0 0,0
03.07.2020 05:00:00 9,7 8,8 - - 8 4 - - WZW 1018,2 26 0 0,0
03.07.2020 04:00:00 9,1 7,9 - - 9 5 - - W 1017,7 28 0 0,0
03.07.2020 03:00:00 10,7 9,4 - - 8 4 - - WZW 1017,7 30 0 0,0
03.07.2020 02:00:00 10,9 9,7 - - 5 3 - - WZW 1017,5 30 0 0,0
03.07.2020 01:00:00 11,3 9,0 - - 8 4 46 25 W 1017,6 35 - 0,0
03.07.2020 00:00:00 13,2 9,6 - - 11 6 - - W 1017,3 40 0 0,0
02.07.2020 23:00:00 14,4 10,3 - - 11 6 - - WNW 1016,9 40 0 0,0
02.07.2020 22:00:00 15,1 10,9 - - 8 4 - - WNW 1016,3 35 0 0,0
02.07.2020 21:00:00 17,4 12,1 - - 16 9 - - W 1015,6 10 18 0,0
02.07.2020 20:00:00 18,9 11,8 - - 18 10 - - W 1015,1 45 54 0,0
02.07.2020 19:00:00 19,8 12,6 - - 21 11 - - W 1014,6 40 42 0,0
02.07.2020 18:00:00 20,3 13,2 - - 18 10 - - W 1014,1 45 30 0,0
02.07.2020 17:00:00 19,6 12,4 - - 24 13 - - W 1013,8 10 0 0,0
02.07.2020 16:00:00 18,4 12,1 - - 18 10 - - W 1013,7 40 12 0,0
02.07.2020 15:00:00 19,0 11,7 - - 21 11 - - W 1013,3 40 0 0,0
02.07.2020 14:00:00 18,8 12,0 - - 21 11 - - W 1012,9 10 6 0,0
02.07.2020 13:00:00 17,6 11,5 - - 21 11 - - W 1012,5 10 24 0,0
02.07.2020 12:00:00 18,7 12,5 - - 24 13 - - W 1012,1 10 24 0,0
02.07.2020 11:00:00 17,4 10,8 - - 24 13 - - W 1011,8 35 12 0,0
02.07.2020 10:00:00 17,5 10,8 17,9 15,9 22 12 - - WNW 1011,5 10 36 0,0
02.07.2020 09:00:00 16,6 11,7 - - 21 11 - - W 1011,0 35 36 0,0
02.07.2020 08:00:00 15,0 11,9 - - 16 9 - - W 1010,7 30 30 0,0
02.07.2020 07:00:00 14,0 11,9 - - 15 8 - - W 1010,3 10 6 0,0
02.07.2020 06:00:00 13,4 11,6 - - 13 7 - - WZW 1009,9 30 0 0,0
02.07.2020 05:00:00 13,0 11,4 - - 13 7 - - WZW 1009,8 29 0 0,0
02.07.2020 04:00:00 13,2 11,4 - - 16 9 - - W 1009,8 30 0 0,0
02.07.2020 03:00:00 13,0 11,7 - - 9 5 - - ZW 1009,9 30 0 0,0
02.07.2020 02:00:00 11,1 9,1 - - 8 4 - - W 1010,0 30 0 0,0
02.07.2020 01:00:00 12,4 11,4 - - 5 3 - - W 1009,6 22 - 0,0
02.07.2020 00:00:00 13,0 11,3 - - 8 4 - - WNW 1009,5 28 0 0,0
01.07.2020 23:00:00 13,9 12,1 - - 8 4 - - NW 1009,3 23 0 0,0
01.07.2020 22:00:00 16,2 14,0 - - 13 7 - - W 1008,7 30 0 0,0
01.07.2020 21:00:00 16,7 13,9 - - 13 7 - - ZW 1008,0 30 0 0,0
01.07.2020 20:00:00 17,5 14,0 - - 13 7 - - WZW 1007,8 30 0 0,0
01.07.2020 19:00:00 17,7 14,0 - - 18 10 - - WZW 1007,8 35 12 0,0
01.07.2020 18:00:00 18,1 13,7 - - 21 11 - - ZW 1007,6 30 18 0,0
01.07.2020 17:00:00 19,7 14,3 - - 24 13 - - WZW 1007,5 30 36 0,0
01.07.2020 16:00:00 20,1 13,6 - - 26 14 - - WZW 1007,2 10 30 0,0
01.07.2020 15:00:00 19,4 13,3 - - 24 13 - - WZW 1007,0 10 18 0,0
01.07.2020 14:00:00 19,9 13,6 - - 26 14 - - WZW 1006,6 35 36 0,0
01.07.2020 13:00:00 19,8 14,1 - - 26 14 - - ZW 1006,3 30 54 0,0
01.07.2020 12:00:00 19,0 13,2 - - 24 13 - - WZW 1006,1 35 30 0,0
01.07.2020 11:00:00 17,3 13,4 - - 22 12 - - WZW 1006,1 30 0 0,0
01.07.2020 10:00:00 16,5 13,5 17,7 16,0 18 10 - - WZW 1006,2 10 0 0,2
01.07.2020 09:00:00 16,3 13,0 - - 16 9 - - WZW 1005,9 35 6 0,0
01.07.2020 08:00:00 15,9 12,6 - - 15 8 - - WZW 1005,7 10 12 0,0
01.07.2020 07:00:00 15,1 12,9 - - 13 7 - - WZW 1005,5 29 24 0,0
01.07.2020 06:00:00 14,5 12,5 - - 13 7 - - WZW 1005,0 26 0 0,0
01.07.2020 05:00:00 14,6 13,1 - - 9 5 - - WZW 1005,0 24 0 0,0
01.07.2020 04:00:00 14,7 13,2 - - 11 6 - - W 1005,1 22 0 0,0
01.07.2020 03:00:00 14,8 13,0 - - 8 4 - - ZW 1005,3 26 0 0,0
01.07.2020 02:00:00 14,8 13,0 - - 16 9 - - ZW 1005,4 25 0 0,0
01.07.2020 01:00:00 15,3 13,8 - - 16 9 - - WZW 1006,0 23 - 0,0
01.07.2020 00:00:00 15,3 13,5 - - 9 5 - - WZW 1006,4 25 0 0,0
30.06.2020 23:00:00 15,8 14,3 - - 18 10 - - ZW 1006,3 25 0 0,0
30.06.2020 22:00:00 16,2 14,5 - - 15 8 - - ZW 1006,3 21 0 0,0
30.06.2020 21:00:00 16,3 15,2 - - 21 11 - - ZW 1006,2 18 0 0,0
30.06.2020 20:00:00 16,7 15,5 - - 16 9 - - ZW 1006,2 26 0 0,0
30.06.2020 19:00:00 16,9 15,5 - - 18 10 - - WZW 1006,1 22 0 0,0
30.06.2020 18:00:00 16,8 15,9 - - 21 11 - - WZW 1006,5 5 0 0,0
30.06.2020 17:00:00 17,0 16,1 - - 21 11 - - ZW 1006,7 10 0 0,0
30.06.2020 16:00:00 16,9 16,1 - - 21 11 - - ZW 1006,8 2,0 0 0,2
30.06.2020 15:00:00 16,4 15,8 - - 18 10 - - ZW 1007,2 1,8 0 0,0
30.06.2020 14:00:00 16,1 15,3 - - 16 9 - - ZW 1007,3 2,0 0 0,2
30.06.2020 13:00:00 15,7 14,8 - - 13 7 - - ZW 1007,8 3,0 0 0,2
30.06.2020 12:00:00 16,3 14,2 - - 16 9 - - WZW 1007,8 10 0 0,0

tt = temperatuur
td = dauwpunt
tt -20cm = temperatuur -20cm
tt -100cm = temperatuur -100cm
ff = windsnelheid
fx = windstoten
dd = windrichting
ppp = luchtdruk
vv = zicht
sd = Zonneschijnduur
rr = neerslag

Weerstations in de omgeving